Lid_Strength_Index
3 6 6 8 12 13 12 10 8 8 8 8 7 7 7 6 8 12 2 1 1 1 -0 -0 -1 -1 -1 -1 -1 -1 -1 -1 -1 -1 -1 -1 -1 -1 -1 -1 -1 -1 -1 -1 -1 -1 -1 -1 -1
5 6 7 9 14 16 12 9 8 8 8 7 7 5 7 8 4 4 3 1 0 0 0 -0 -1 -1 -1 -1 -1 -1 -1 -1 -1 -1 -1 -1 -1 -1 -1 -1 -1 -1 -1 -1 -1 -1 -1 -1 -1
4 6 10 12 14 15 13 9 8 7 6 7 7 5 6 6 3 3 1 1 0 0 0 -0 -1 -1 -1 -1 -1 -1 -1 -1 -1 -1 -1 -1 -1 -1 -1 -1 -1 -1 -1 -1 -1 -1 -1 -1 -1
7 8 10 14 15 12 10 8 7 6 6 6 5 7 4 2 3 2 1 0 1 1 -0 -0 -0 -1 -1 -1 -1 -1 -1 -1 -1 -1 -1 -1 -1 -1 -1 -1 -1 -1 -2 -2 -1 -2 -2 -1 -1
8 9 14 15 14 10 8 7 6 6 7 6 5 7 6 3 1 2 1 0 1 1 0 -0 -0 -1 -1 -1 -1 -1 -1 -1 -1 -1 -1 -1 -1 -1 -1 -1 -1 -2 -2 -2 -2 -2 -2 -2 -2
11 10 15 16 13 10 8 6 6 7 6 6 6 6 6 2 2 2 1 1 1 1 0 -0 -1 -0 -0 -1 -1 -1 -1 -1 -1 -1 -1 -1 -1 -1 -1 -1 -1 -1 -2 -2 -2 -2 -2 -2 -2
12 12 14 13 12 11 8 5 8 8 7 7 4 7 7 4 3 2 2 1 1 0 0 0 -0 -0 -0 -0 -1 -1 -1 -1 -1 -1 -1 -1 -1 -1 -1 -1 -1 -1 -2 -2 -2 -2 -2 -3 -3
10 12 14 13 12 12 8 6 6 6 7 5 5 7 9 6 3 2 2 1 1 1 0 0 0 -0 0 -0 -1 -0 -1 -1 -1 -1 -1 -1 -1 -1 -1 -1 -1 -1 -2 -2 -2 -2 -2 -2 -2
9 14 14 13 12 10 8 10 6 5 6 6 6 5 5 5 5 6 4 3 2 1 1 0 0 0 0 0 -0 -0 -1 -1 -1 -1 -1 -0 -0 -0 -1 -1 -1 -1 -2 -2 -2 -2 -2 -2 -3
12 14 13 10 10 10 9 9 9 7 7 6 6 5 5 5 6 6 7 4 3 2 1 1 1 0 0 -0 -0 0 -0 -0 -0 -0 -0 -0 0 -0 -1 -1 -1 -1 -2 -2 -2 -2 -2 -2 0
13 13 11 10 9 8 9 10 9 9 10 7 7 6 6 6 7 7 7 7 7 3 1 1 1 0 0 1 -0 -0 -0 -0 -0 -0 -0 -0 -0 -0 -0 -0 -0 -0 -1 -0 -1 -0 -0 0 0
13 11 10 10 9 9 10 9 9 9 9 7 7 6 7 7 7 7 6 6 7 6 3 1 1 1 1 0 0 0 0 0 -0 -0 -0 -0 0 1 0 0 0 0 -0 0 0 0 0 0 0
10 9 9 8 8 9 9 9 9 9 7 7 7 6 7 7 6 7 6 5 6 5 3 1 1 1 1 1 0 0 0 0 0 0 -0 -0 0 1 1 1 0 0 -0 0 0 0 0 0 0
8 8 8 7 8 8 9 8 8 8 7 6 6 6 6 5 5 6 4 4 3 2 2 4 1 1 0 1 1 0 0 1 0 0 0 0 0 1 0 1 0 0 -0 0 0 0 0 0 0
7 9 8 8 8 8 7 9 8 6 5 6 6 6 5 5 5 5 4 3 3 3 2 2 5 1 1 1 1 0 0 0 1 1 0 0 1 2 1 1 1 1 0 1 1 1 0 1 1
9 11 13 9 7 7 8 11 7 6 6 7 6 6 5 5 5 5 3 4 3 3 2 1 1 3 4 1 1 1 0 0 1 1 1 0 0 0 1 1 1 1 1 2 1 1 1 1 1
11 14 12 10 7 7 8 11 7 6 6 7 7 6 6 6 5 5 4 3 3 2 3 2 1 1 2 5 1 1 1 1 1 1 1 0 0 -0 0 0 1 1 1 1 1 1 1 2 2
13 12 11 11 8 8 9 10 8 6 7 7 7 6 6 5 5 4 4 4 3 2 2 2 1 1 1 1 1 1 1 1 1 1 1 1 0 0 0 0 1 1 1 1 1 2 1 2 1
9 10 11 9 8 9 10 10 9 8 8 8 7 7 6 6 4 4 3 2 2 2 2 2 2 2 1 2 2 2 2 1 1 1 1 1 1 0 1 0 2 1 1 1 1 2 2 2 2
9 10 11 10 8 10 10 10 9 8 8 7 7 7 6 6 5 4 3 3 3 2 2 2 2 2 2 2 2 2 2 1 1 1 1 1 1 1 1 1 1 1 1 1 1 1 2 2 2
10 11 10 10 9 9 10 11 10 7 7 7 7 6 6 5 6 4 4 4 4 3 3 2 2 2 2 2 1 1 1 1 2 1 1 1 0 1 1 1 1 1 1 1 1 1 2 3 2
12 8 8 9 11 15 10 15 11 9 8 7 7 7 7 6 5 5 5 5 4 4 4 4 2 2 2 2 2 3 3 3 3 2 1 1 0 0 1 1 1 1 1 2 2 1 1 2 3
10 7 9 9 12 13 12 15 12 9 9 8 8 7 7 7 6 6 6 5 5 5 5 3 2 2 2 2 2 2 3 3 4 3 2 3 3 0 0 0 0 1 2 1 2 2 1 1 2
7 9 10 11 13 16 13 13 13 11 10 8 7 6 6 7 7 6 6 6 6 6 5 5 4 3 2 2 2 2 3 3 3 2 2 2 1 2 1 1 1 1 1 1 1 1 1 1 2
10 13 17 17 17 17 11 13 12 9 8 7 8 8 8 8 8 8 7 7 7 7 6 5 5 5 5 2 3 2 2 2 2 2 2 2 2 1 1 1 1 1 1 1 1 1 1 1 2
11 12 16 20 19 16 12 16 12 8 7 7 6 7 8 9 8 8 8 8 7 7 6 5 5 5 4 3 3 3 2 3 3 3 2 2 2 1 1 1 1 1 1 1 1 1 1 1 1
10 12 10 15 15 18 15 12 9 8 8 8 7 8 9 8 8 8 7 7 7 6 6 5 5 5 4 3 2 2 2 2 2 2 1 1 1 1 1 1 1 1 1 1 1 1 1 5 5
10 8 14 14 22 23 17 15 14 11 9 8 8 8 9 9 9 8 8 7 7 7 6 6 6 4 3 2 2 2 2 2 2 2 2 2 1 1 1 1 1 1 3 2 2 2 3 3 3
11 12 12 12 16 20 21 17 10 10 9 9 8 8 9 9 9 9 8 8 7 7 7 6 5 4 4 3 2 3 2 2 2 2 2 1 1 1 1 2 1 1 2 2 2 2 3 2 2
10 11 12 17 18 17 18 17 8 8 8 8 7 7 7 7 7 7 8 8 7 7 6 6 5 4 3 3 3 2 2 2 2 2 2 1 2 1 1 1 2 1 1 3 3 4 3 3 2